Meteo pe oră la Dachnyy

Astăzi, 17 Aprilie, Sâmbătă

Timp Temperatura Precipitaţii Vânt Presiune Umiditate
00:00 +11°C° 0 mm 1 m/s 760 mmHg 91%
01:00 +11°C° 0.3 mm 1 m/s 760 mmHg 92%
02:00 +11°C° 0.3 mm 1 m/s 760 mmHg 94%
03:00 +10°C° 0.3 mm 2 m/s 760 mmHg 95%
04:00 +10°C° 0.5 mm 2 m/s 760 mmHg 95%
05:00 +10°C° 0.5 mm 2 m/s 761 mmHg 96%
06:00 +10°C° 0.5 mm 2 m/s 761 mmHg 97%
07:00 +10°C° 0.3 mm 2 m/s 761 mmHg 93%
08:00 +10°C° 0.3 mm 3 m/s 761 mmHg 89%
09:00 +11°C° 0.3 mm 3 m/s 762 mmHg 85%
10:00 +11°C° 0 mm 3 m/s 762 mmHg 79%
11:00 +12°C° 0 mm 3 m/s 762 mmHg 72%
12:00 +13°C° 0 mm 4 m/s 762 mmHg 65%
13:00 +13°C° 0 mm 3 m/s 762 mmHg 61%
14:00 +14°C° 0 mm 3 m/s 762 mmHg 57%
15:00 +14°C° 0 mm 3 m/s 762 mmHg 53%
16:00 +14°C° 0 mm 3 m/s 762 mmHg 56%
17:00 +14°C° 0 mm 2 m/s 762 mmHg 59%
18:00 +14°C° 0 mm 2 m/s 762 mmHg 62%
19:00 +13°C° 0 mm 2 m/s 762 mmHg 66%
20:00 +10°C° 0 mm 2 m/s 762 mmHg 71%
21:00 +9°C° 0 mm 2 m/s 763 mmHg 75%
22:00 +9°C° 0 mm 2 m/s 762 mmHg 78%
23:00 +9°C° 0 mm 1 m/s 762 mmHg 80%

Mâine, 18 Aprilie, Duminică

Timp Temperatura Precipitaţii Vânt Presiune Umiditate
00:00 +9°C° 0 mm 1 m/s 762 mmHg 83%
01:00 +9°C° 0 mm 1 m/s 762 mmHg 82%
02:00 +9°C° 0 mm 1 m/s 762 mmHg 81%
03:00 +8°C° 0 mm 0 m/s 762 mmHg 80%
04:00 +9°C° 0 mm 1 m/s 762 mmHg 79%
05:00 +9°C° 0 mm 1 m/s 762 mmHg 78%
06:00 +8°C° 0 mm 2 m/s 761 mmHg 77%
07:00 +8°C° 0 mm 2 m/s 761 mmHg 78%
08:00 +8°C° 0 mm 2 m/s 761 mmHg 79%
09:00 +9°C° 0 mm 2 m/s 761 mmHg 80%
10:00 +9°C° 0.5 mm 2 m/s 761 mmHg 83%
11:00 +9°C° 0.5 mm 2 m/s 761 mmHg 85%
12:00 +9°C° 0.5 mm 2 m/s 761 mmHg 88%
13:00 +9°C° 0.5 mm 2 m/s 761 mmHg 89%
14:00 +9°C° 0.5 mm 3 m/s 760 mmHg 91%
15:00 +9°C° 0.5 mm 3 m/s 760 mmHg 92%
16:00 +9°C° 0.1 mm 3 m/s 760 mmHg 93%
17:00 +9°C° 0.1 mm 3 m/s 760 mmHg 94%
18:00 +9°C° 0.1 mm 3 m/s 759 mmHg 94%
19:00 +9°C° 0.6 mm 3 m/s 759 mmHg 95%
20:00 +9°C° 0.6 mm 3 m/s 759 mmHg 96%
21:00 +9°C° 0.6 mm 3 m/s 759 mmHg 97%
22:00 +10°C° 0 mm 3 m/s 759 mmHg 98%
23:00 +10°C° 0 mm 2 m/s 759 mmHg 98%

Poimâine, 19 Aprilie, Luni

Timp Temperatura Precipitaţii Vânt Presiune Umiditate
00:00 +10°C° 0 mm 2 m/s 758 mmHg 98%
01:00 +10°C° 0 mm 2 m/s 758 mmHg 98%
02:00 +11°C° 0 mm 1 m/s 758 mmHg 97%
03:00 +11°C° 0 mm 1 m/s 758 mmHg 97%
04:00 +11°C° 0.2 mm 1 m/s 758 mmHg 97%
05:00 +10°C° 0.2 mm 2 m/s 757 mmHg 97%
06:00 +10°C° 0.2 mm 2 m/s 757 mmHg 97%
07:00 +12°C° 0.1 mm 2 m/s 757 mmHg 95%
08:00 +13°C° 0.1 mm 2 m/s 757 mmHg 93%
09:00 +14°C° 0.1 mm 2 m/s 757 mmHg 92%
10:00 +14°C° 0.4 mm 3 m/s 757 mmHg 90%
11:00 +16°C° 0.4 mm 3 m/s 757 mmHg 89%
12:00 +15°C° 0.4 mm 4 m/s 757 mmHg 87%
13:00 +16°C° 0.2 mm 3 m/s 757 mmHg 89%
14:00 +16°C° 0.2 mm 3 m/s 757 mmHg 90%
15:00 +14°C° 0.2 mm 3 m/s 757 mmHg 92%
16:00 +15°C° 0 mm 2 m/s 756 mmHg 92%
17:00 +15°C° 0 mm 2 m/s 756 mmHg 91%
18:00 +15°C° 0 mm 1 m/s 756 mmHg 91%
19:00 +15°C° 0.5 mm 2 m/s 756 mmHg 93%
20:00 +15°C° 0.5 mm 2 m/s 756 mmHg 95%
21:00 +13°C° 0.5 mm 3 m/s 756 mmHg 97%
22:00 +13°C° 0.2 mm 3 m/s 755 mmHg 96%
23:00 +14°C° 0.2 mm 4 m/s 754 mmHg 95%

20 Aprilie, Marţi

Timp Temperatura Precipitaţii Vânt Presiune Umiditate
00:00 +14°C° 0.2 mm 4 m/s 754 mmHg 94%
01:00 +14°C° 0.1 mm 5 m/s 753 mmHg 93%
02:00 +14°C° 0.1 mm 5 m/s 752 mmHg 91%
03:00 +14°C° 0.1 mm 6 m/s 751 mmHg 90%
04:00 +14°C° 0 mm 7 m/s 750 mmHg 87%
05:00 +14°C° 0 mm 7 m/s 749 mmHg 85%
06:00 +13°C° 0 mm 8 m/s 748 mmHg 82%
07:00 +13°C° 0 mm 8 m/s 748 mmHg 80%
08:00 +15°C° 0 mm 7 m/s 748 mmHg 78%
09:00 +16°C° 0 mm 7 m/s 748 mmHg 76%
10:00 +17°C° 0 mm 7 m/s 748 mmHg 74%
11:00 +18°C° 0 mm 7 m/s 749 mmHg 73%
12:00 +20°C° 0 mm 7 m/s 750 mmHg 71%
13:00 +19°C° 0.2 mm 6 m/s 750 mmHg 71%
14:00 +17°C° 0.2 mm 6 m/s 751 mmHg 71%
15:00 +16°C° 0.2 mm 5 m/s 752 mmHg 72%
16:00 +15°C° 0.4 mm 5 m/s 752 mmHg 73%
17:00 +14°C° 0.4 mm 5 m/s 752 mmHg 75%
18:00 +13°C° 0.4 mm 6 m/s 753 mmHg 77%
19:00 +11°C° 0.5 mm 6 m/s 753 mmHg 81%
20:00 +10°C° 0.5 mm 6 m/s 754 mmHg 85%
21:00 +9°C° 0.5 mm 7 m/s 754 mmHg 89%
22:00 +9°C° 0 mm 7 m/s 755 mmHg 86%
23:00 +9°C° 0 mm 7 m/s 755 mmHg 83%

21 Aprilie, Miercuri

Timp Temperatura Precipitaţii Vânt Presiune Umiditate
00:00 +7°C° 0 mm 8 m/s 756 mmHg 81%
01:00 +9°C° 0 mm 8 m/s 756 mmHg 79%
02:00 +9°C° 0 mm 8 m/s 757 mmHg 77%
03:00 +9°C° 0 mm 8 m/s 757 mmHg 75%
04:00 +8°C° 0 mm 7 m/s 758 mmHg 78%
05:00 +8°C° 0 mm 6 m/s 758 mmHg 82%
06:00 +7°C° 0 mm 5 m/s 759 mmHg 85%
07:00 +8°C° 0 mm 5 m/s 759 mmHg 80%
08:00 +11°C° 0 mm 4 m/s 760 mmHg 75%
09:00 +12°C° 0 mm 4 m/s 760 mmHg 70%
10:00 +13°C° 0 mm 4 m/s 760 mmHg 66%
11:00 +14°C° 0 mm 3 m/s 760 mmHg 61%
12:00 +16°C° 0 mm 3 m/s 761 mmHg 57%
13:00 +16°C° 0 mm 3 m/s 761 mmHg 56%
14:00 +16°C° 0 mm 3 m/s 761 mmHg 54%
15:00 +17°C° 0 mm 2 m/s 760 mmHg 53%
16:00 +16°C° 0 mm 2 m/s 761 mmHg 58%
17:00 +16°C° 0 mm 2 m/s 761 mmHg 63%
18:00 +15°C° 0 mm 2 m/s 761 mmHg 68%
19:00 +14°C° 0 mm 2 m/s 761 mmHg 71%
20:00 +13°C° 0 mm 2 m/s 761 mmHg 73%
21:00 +13°C° 0 mm 2 m/s 762 mmHg 75%
22:00 +12°C° 0 mm 2 m/s 762 mmHg 78%
23:00 +12°C° 0 mm 2 m/s 762 mmHg 80%

22 Aprilie, Joi

Timp Temperatura Precipitaţii Vânt Presiune Umiditate
00:00 +11°C° 0 mm 1 m/s 762 mmHg 83%
01:00 +11°C° 0 mm 1 m/s 762 mmHg 84%
02:00 +11°C° 0 mm 1 m/s 762 mmHg 84%
03:00 +9°C° 0 mm 0 m/s 762 mmHg 85%
04:00 +9°C° 0 mm 0 m/s 763 mmHg 85%
05:00 +10°C° 0 mm 0 m/s 763 mmHg 84%
06:00 +11°C° 0 mm 1 m/s 763 mmHg 84%
07:00 +12°C° 0 mm 1 m/s 763 mmHg 78%
08:00 +14°C° 0 mm 1 m/s 764 mmHg 73%
09:00 +15°C° 0 mm 1 m/s 764 mmHg 67%
10:00 +16°C° 0.2 mm 1 m/s 764 mmHg 62%
11:00 +18°C° 0.2 mm 1 m/s 764 mmHg 58%
12:00 +19°C° 0.2 mm 1 m/s 764 mmHg 53%
13:00 +19°C° 0.2 mm 1 m/s 764 mmHg 52%
14:00 +20°C° 0.2 mm 1 m/s 764 mmHg 51%
15:00 +20°C° 0.2 mm 1 m/s 764 mmHg 50%
16:00 +19°C° 0.2 mm 1 m/s 764 mmHg 55%
17:00 +19°C° 0.2 mm 1 m/s 764 mmHg 59%
18:00 +16°C° 0.2 mm 0 m/s 764 mmHg 63%
19:00 +15°C° 0.1 mm 0 m/s 765 mmHg 67%
20:00 +15°C° 0.1 mm 1 m/s 765 mmHg 70%
21:00 +14°C° 0.1 mm 1 m/s 765 mmHg 73%
22:00 +13°C° 0.1 mm 1 m/s 765 mmHg 74%
23:00 +13°C° 0.1 mm 1 m/s 765 mmHg 75%
Arată mai mult

Formular de consimțământ

Meteoprog și furnizorii noștri de servicii pot stoca și accesa date personale, precum cookies, identificatori de dispozitiv sau alte tehnologii similare pe dispozitivul dumneavoastră și procesa astfel de date pentru a personaliza conținutul și reclamele, dar și pentru a oferi caracteristici de social media și pentru a analiza traficul.

  • Stocarea și/sau accesarea informațiilor pe dispozitivul dumneavoastră

    Cookies, identificatori de dispozitiv sau alte informații pot fi stocate sau accesate pe dispozitiv în scopurile indicate mai sus.

  • Reclame și conținut personalizat, evaluarea reclamelor și a conținutului, informații despre audiențe și dezvoltarea produselor

    Reclamele și conținutul pot fi personalizate pe baza unui profil. Pot fi adăugate date suplimentare pentru a personaliza mai bine reclamele și conținutul. Performanța reclamelor și conținutului poate fi măsurată. Pot fi obținute informații despre utilizatorii care au văzut reclamele și conținutul. Aceste date pot fi utilizate pentru a dezvolta sau îmbunătăți experiența utilizatorilor, sistemele și software-ul.

Dând clic pe ‘Sunt de acord’, permiteți utilizarea cookie-urilor menționate, a identificatorilor de dispozitiv, balizelor web sau altor tehnologii similare. Setările pot fi modificate din browser-ul dispozitivului dumneavoastră.

În anumite scopuri, interesele legitime pot prima asupra consimțământului. Puteți citi mai multe informații în acest sens în Politica privind Confidențialitatea Datelor și Cookie.